Regional Weather Roundup
Issued by NWS

Home | Current Version | Previous Version | Graphics & Text | Print | Product List | Glossary On
Versions: 1 2 3 4 5 6 7 8 9 10 11 12 13 14 15 16 17 18 19 20 21 22 23 24 25 26 27 28 29 30 31 32 33 34 35 36 37 38 39 40 41 42 43 44 45 46 47 48 49 50
000
ASUS45 KCYS 301310
RWRWY

WYOMING REGIONAL WEATHER ROUNDUP
NATIONAL WEATHER SERVICE CHEYENNE WY
600 AM MST FRI JAN 30 2015

NOTE:  "FAIR" INDICATES FEW OR NO CLOUDS BELOW 12,000 FEET
WITH NO SIGNIFICANT WEATHER AND/OR OBSTRUCTIONS TO VISIBILITY.

WYZ001-301400-
YELLOWSTONE NATIONAL PARK

CITY           SKY/WX    TMP DP  RH WIND       PRES   REMARKS
LK YELLOWSTONE   N/A     -1  -4  87 CALM      30.28S
W YELLOWSTONE  NOT AVBL

$$
WYZ002>013-054>058-071-098>099-301400-
NORTHERN WYOMING

CITY           SKY/WX    TMP DP  RH WIND       PRES   REMARKS
JACKSON        FAIR      10  10 100 N8        30.28S WCI  -1
CODY           FAIR      25  19  80 CALM      30.20S
GREYBULL       FOG       24  22  91 CALM      30.25S VSB 1/4
WORLAND        FAIR      16  13  88 CALM      30.23S
SHERIDAN       FAIR      24  17  74 CALM      30.19S
BUFFALO        FAIR      31   8  38 W7        30.20S WCI  24
GILLETTE       FAIR      22  19  89 CALM      30.18S
HULETT           N/A    N/A N/A N/A MISG        N/A
NEWCASTLE      FAIR      27  21  80 N3        30.21F

$$
WYZ014>020-022>026-101>103-301400-
CENTRAL WYOMING

CITY           SKY/WX    TMP DP  RH WIND       PRES   REMARKS
BIG PINEY      FAIR      19  15  84 CALM      30.23F
PINEDALE       PTSUNNY   14  12  92 W7        30.24F WCI   4
DUBOIS         FAIR      19   7  58 NW12      30.21S WCI   7
LANDER         FAIR      26  20  77 CALM      30.20F
RIVERTON       FAIR      26  22  84 NW6       30.22S WCI  19
CASPER         FAIR      30  25  81 W6        30.20F WCI  24
DOUGLAS        FAIR      24  22  91 N3        30.22S

$$
WYZ021-027>030-104>119-301400-
SOUTHERN WYOMING

CITY           SKY/WX    TMP DP  RH WIND       PRES   REMARKS
EVANSTON       FAIR      28  24  85 NE6       30.19F WCI  22
KEMMERER       FAIR      23  21  93 NW7       30.20F WCI  15
FORT BRIDGER   CLOUDY    30  27  89 CALM      30.24S
ROCK SPRINGS   CLOUDY    28  26  92 SW3       30.20F
DIXON          MIX PCPN  32  31  94 E5        30.26S WCI  27
RAWLINS        CLOUDY    31  26  82 NE3       30.22F
SARATOGA       CLOUDY    30  27  86 SE3       30.23S
LARAMIE        FAIR      27  22  81 CALM      30.20F
CHEYENNE       FAIR      28  23  81 W7        30.19F WCI  21
TORRINGTON     FAIR      26  19  74 E7        30.21F WCI  18
PINE BLUFFS    FAIR      27  23  86 CALM      30.22S

$$



USA.gov is the U.S. government's official web portal to all federal, state and local government web resources and services.